Weather History for KMKG - September, 2013

Change the Weather History Date:

Saturday, September 28, 2013

  Actual Average Record
Temperature  
Mean Temperature 67 °F 57 °F  
Max Temperature 80 °F 66 °F 90 °F (1905)
Min Temperature 53 °F 48 °F 27 °F (1991)
Degree Days  
Heating Degree Days 0 9  
Month to date heating degree days 98 125  
Since 1 July heating degree days 133 155  
Cooling Degree Days 2 1  
Month to date cooling degree days 77 55  
Year to date cooling degree days 616 562  
Growing Degree Days 16 (Base 50)    
Moisture  
Dew Point 52 °F    
Average Humidity 67    
Maximum Humidity 93    
Minimum Humidity 40    
Precipitation  
Precipitation 0.00 in 0.13 in 1.57 in (1904)
Month to date precipitation 1.53 3.64  
Year to date precipitation 32.78 24.22  
Snow  
Snow 0.00 in 0.00 in T in (1949)
Month to date snowfall 0.0 0.0  
Since 1 July snowfall 0.0 0.0  
Since 1 September snowfall 0.0 0.0  
Snow Depth 0.00 in    
Sea Level Pressure  
Sea Level Pressure 30.05 in    
Wind  
Wind Speed 11 mph (SSE)    
Max Wind Speed 23 mph    
Max Gust Speed 32 mph    
Visibility 10 miles    
Events      
T = Trace of Precipitation, MM = Missing Value Source: NWS Daily Summary

Daily Weather History Graph

Daily Weather History Graph

Search for Another Location

Airport or City:

Trip Planner

Search our weather history database for the weather conditions in past years. The results will help you decide how hot, cold, wet, or windy it might be!

Date:

Astronomy

Sep. 28, 2013 Rise Set
Actual Time 7:39 AM EDT 7:31 PM EDT
Civil Twilight 7:10 AM EDT 7:59 PM EDT
Nautical Twilight 6:37 AM EDT 8:32 PM EDT
Astronomical Twilight 6:04 AM EDT 9:05 PM EDT
Moon 1:17 AM EDT (9/28) 3:57 PM EDT (9/28)
Length of Visible Light 12h 48m
Length of Day
11h 51m
Last Quarter, 36% of the Moon is Illuminated
Sep 28
Last Quarter
Oct 4
New
Oct 11
First Quarter
Oct 18
Full
Oct 26
Last Quarter

Hourly Weather History & Observations

Time (EDT) Temp. Dew Point Humidity Pressure Visibility Wind Dir Wind Speed Gust Speed Precip Events Conditions
12:55 AM 57.9 °F 52.0 °F 81% 30.14 in 10.0 mi ESE 8.1 mph - N/A   Clear
1:55 AM 57.9 °F 53.1 °F 84% 30.14 in 10.0 mi SE 8.1 mph - N/A   Clear
2:55 AM 57.0 °F 52.0 °F 83% 30.14 in 10.0 mi ESE 6.9 mph - N/A   Clear
3:55 AM 55.9 °F 51.1 °F 84% 30.12 in 10.0 mi ESE 9.2 mph - N/A   Clear
4:55 AM 55.0 °F 50.0 °F 83% 30.13 in 10.0 mi ESE 9.2 mph - N/A   Clear
5:55 AM 54.0 °F 50.0 °F 86% 30.13 in 10.0 mi ESE 5.8 mph - N/A   Clear
6:55 AM 54.0 °F 51.1 °F 90% 30.12 in 8.0 mi ESE 8.1 mph - N/A   Clear
7:55 AM 54.0 °F 51.1 °F 90% 30.13 in 6.0 mi ESE 8.1 mph - N/A   Partly Cloudy
8:55 AM 57.0 °F 53.1 °F 87% 30.14 in 10.0 mi SE 8.1 mph - N/A   Clear
9:55 AM 62.1 °F 53.1 °F 72% 30.13 in 10.0 mi SE 6.9 mph - N/A   Clear
10:55 AM 66.9 °F 54.0 °F 63% 30.12 in 10.0 mi SSE 9.2 mph - N/A   Partly Cloudy
11:55 AM 71.1 °F 55.0 °F 57% 30.10 in 10.0 mi SSE 8.1 mph - N/A   Partly Cloudy
12:55 PM 75.0 °F 55.9 °F 51% 30.08 in 10.0 mi South 10.4 mph 20.7 mph N/A   Partly Cloudy
1:55 PM 78.1 °F 53.1 °F 42% 30.04 in 10.0 mi South 15.0 mph 24.2 mph N/A   Partly Cloudy
2:55 PM 78.1 °F 53.1 °F 42% 30.01 in 10.0 mi South 19.6 mph 26.5 mph N/A   Scattered Clouds
3:55 PM 77.0 °F 53.1 °F 43% 29.99 in 10.0 mi South 11.5 mph - N/A   Scattered Clouds
4:55 PM 79.0 °F 53.1 °F 40% 29.98 in 10.0 mi South 10.4 mph - N/A   Scattered Clouds
5:55 PM 77.0 °F 51.1 °F 40% 29.97 in 10.0 mi South 11.5 mph - N/A   Scattered Clouds
6:55 PM 75.0 °F 51.1 °F 43% 29.95 in 10.0 mi SSE 8.1 mph - N/A   Scattered Clouds
7:55 PM 71.1 °F 52.0 °F 51% 29.93 in 10.0 mi SE 9.2 mph - N/A   Scattered Clouds
8:55 PM 71.1 °F 52.0 °F 51% 29.92 in 10.0 mi SE 9.2 mph - N/A   Scattered Clouds
9:55 PM 72.0 °F 52.0 °F 49% 29.92 in 10.0 mi SSE 11.5 mph - N/A   Overcast
10:55 PM 73.9 °F 53.1 °F 48% 29.91 in 10.0 mi South 13.8 mph 23.0 mph N/A   Overcast
11:55 PM 75.9 °F 54.0 °F 46% 29.90 in 10.0 mi South 18.4 mph 28.8 mph N/A   Overcast